Location: Dumpton Point
(51.3500°N, 1.4433°E)
Time: 04:42:14
(UTC+00:00)

Vanguard 2 Rocket - All Passes

Search period start: 14 April 2021 00:00
Search period end: 24 April 2021 00:00
Orbit: 553 x 3326 km, 32.9° (Epoch: 13 April)

Date Brightness Start Highest point End Pass type
(mag) Time Alt. Az. Time Alt. Az. Time Alt. Az.
14 Apr - 11:57:02 10° SSE 12:03:39 13° SE 12:10:12 10° ESE daylight
14 Apr - 14:02:14 10° SSW 14:17:43 29° SSE 14:31:13 10° ESE daylight
14 Apr - 16:15:43 10° SW 16:32:50 38° S 16:45:32 10° ESE daylight
14 Apr - 18:32:37 10° WSW 18:47:15 33° SSW 18:57:15 10° SE daylight
14 Apr - 20:52:36 10° WSW 20:59:34 15° SW 21:05:05 10° SSW visible
15 Apr - 13:02:49 10° S 13:16:44 24° SSE 13:29:51 10° ESE daylight
15 Apr - 15:14:27 10° SW 15:31:42 37° SSE 15:45:36 10° ESE daylight
15 Apr - 17:30:17 10° WSW 17:46:44 38° SSW 17:58:20 10° SE daylight
15 Apr - 19:48:50 10° WSW 20:00:02 23° SW 20:08:07 10° S visible
16 Apr - 12:04:37 10° S 12:15:58 19° SE 12:27:20 10° ESE daylight
16 Apr - 14:13:48 10° SW 14:30:28 35° SSE 14:45:09 10° ESE daylight
16 Apr - 16:28:20 10° WSW 16:45:49 40° S 16:58:57 10° ESE daylight
16 Apr - 18:45:51 10° WSW 19:00:03 30° SSW 19:10:05 10° SSE daylight
16 Apr - 21:08:55 10° WSW 21:11:56 11° SW 21:14:41 10° SW visible
17 Apr - 11:08:45 10° SSE 11:15:32 13° SE 11:22:30 10° ESE daylight
17 Apr - 13:13:51 10° SSW 13:29:18 30° SSE 13:44:06 10° E daylight
17 Apr - 15:26:51 10° SW 15:44:37 41° S 15:59:06 10° ESE daylight
17 Apr - 17:43:19 10° WSW 17:59:36 36° SSW 18:11:22 10° SE daylight
17 Apr - 20:02:58 10° WSW 20:12:30 18° SW 20:19:53 10° S visible
18 Apr - 12:14:47 10° S 12:28:20 25° SE 12:42:17 10° E daylight
18 Apr - 14:25:56 10° SW 14:43:16 39° SSE 14:58:47 10° ESE daylight
18 Apr - 16:41:13 10° WSW 16:58:44 40° S 17:12:08 10° SE daylight
18 Apr - 18:59:25 10° W 19:12:39 26° SW 19:22:28 10° SSE daylight
19 Apr - 11:16:53 10° S 11:27:42 19° SE 11:39:19 10° ESE daylight
19 Apr - 13:25:39 10° SW 13:41:57 36° SSE 13:57:54 10° ESE daylight
19 Apr - 15:39:35 10° WSW 15:57:31 42° S 16:12:25 10° ESE daylight
19 Apr - 17:56:35 10° W 18:12:19 32° SSW 18:24:06 10° SSE daylight
19 Apr - 20:18:19 10° WSW 20:24:47 13° SW 20:30:18 10° SSW visible
20 Apr - 10:21:28 10° SSE 10:27:28 12° SE 10:33:50 10° ESE daylight
20 Apr - 12:26:05 10° SSW 12:40:48 31° SSE 12:56:24 10° E daylight
20 Apr - 14:38:29 10° SW 14:56:07 42° S 15:12:10 10° ESE daylight
20 Apr - 16:54:19 10° WSW 17:11:32 38° SSW 17:25:05 10° SE daylight
20 Apr - 19:13:27 10° W 19:25:03 21° SW 19:34:11 10° S visible
21 Apr - 11:27:22 10° S 11:39:59 25° SE 11:54:07 10° E daylight
21 Apr - 13:37:58 10° SW 13:54:40 40° SSE 14:11:25 10° ESE daylight
21 Apr - 15:52:34 10° WSW 16:10:23 41° S 16:25:30 10° SE daylight
21 Apr - 18:10:10 10° W 18:24:52 28° SSW 18:36:22 10° SSE daylight
22 Apr - 10:29:50 10° S 10:39:34 18° SE 10:50:39 10° E daylight
22 Apr - 12:38:05 10° SW 12:53:22 36° SSE 13:10:05 10° ESE daylight
22 Apr - 14:51:21 10° WSW 15:08:57 43° S 15:25:22 10° ESE daylight
22 Apr - 17:07:39 10° W 17:24:13 34° SSW 17:37:40 10° SSE daylight
22 Apr - 19:28:30 10° WSW 19:37:15 16° SW 19:44:43 10° SSW visible
23 Apr - 09:35:18 10° SE 09:39:35 11° SE 09:44:11 10° ESE daylight
23 Apr - 11:38:53 10° SSW 11:52:22 30° SSE 12:08:07 10° E daylight
23 Apr - 13:50:40 10° SW 14:07:27 42° S 14:24:41 10° ESE daylight
23 Apr - 16:05:46 10° WSW 16:23:09 39° SSW 16:38:19 10° SE daylight
23 Apr - 18:24:12 10° W 18:37:14 23° SW 18:47:58 10° S daylight
